Overview Statistics Trail Chart Weather Telemetry Raw packets
 

This is the latest recevied weather packets stored in our database for station/object KY0TEQ-13. If no packets are shown the sender has not sent any weather packets the latest 10 day(s).

<< 4 5 6 7 8 9 10 >>
Time Temp. Humidity Pressure Rain* Wind** Luminosity Snow
1788657184 23.89° C 26% 1307.2 hPa 0 mm - 18 W/m² -
1788656881 23.89° C 27% 1307.2 hPa 0 mm - 22 W/m² -
1788656576 23.89° C 26% 1307.4 hPa 0 mm - 24 W/m² -
1788656271 23.89° C 26% 1307.4 hPa 0 mm - 25 W/m² -
1788655970 24.44° C 25% 1307.4 hPa 0 mm - 30 W/m² -
1788655669 23.89° C 26% 1307.6 hPa 0 mm - 28 W/m² -
1788655364 24.44° C 26% 1307.4 hPa 0 mm - 33 W/m² -
1788655059 24.44° C 27% 1307.4 hPa 0 mm - 41 W/m² -
1788654755 25° C 26% 1307.6 hPa 0 mm - 38 W/m² -
1788654454 25° C 27% 1307.6 hPa 0 mm - 37 W/m² -
1788654149 25° C 26% 1307.6 hPa 0 mm - 40 W/m² -
1788653845 25.56° C 26% 1307.3 hPa 0 mm - 39 W/m² -
1788653540 26.11° C 24% 1307.3 hPa 0 mm - 48 W/m² -
1788653235 26.67° C 24% 1307.1 hPa 0 mm - 78 W/m² -
1788652930 26.67° C 24% 1307.3 hPa 0 mm - 113 W/m² -
1788652630 26.11° C 25% 1307.3 hPa 0 mm - 136 W/m² -
1788652324 26.11° C 24% 1307.2 hPa 0 mm - 44 W/m² -
1788652020 27.22° C 23% 1307.3 hPa 0 mm - 107 W/m² -
1788651715 26.67° C 23% 1307.2 hPa 0 mm - 166 W/m² -
1788651410 26.67° C 23% 1307.1 hPa 0 mm - 182 W/m² -
1788651109 27.78° C 22% 1307.4 hPa 0 mm - 217 W/m² -
1788650804 26.67° C 23% 1307.4 hPa 0 mm - 250 W/m² -
1788650500 26.67° C 23% 1307.6 hPa 0 mm - 228 W/m² -
1788650195 26.67° C 23% 1307.4 hPa 0 mm - 153 W/m² -
1788649892 26.67° C 23% 1307.3 hPa 0 mm - 288 W/m² -

* Rain latest hour (hover to see other rain measurements)
** Current wind speed in m/s (hover to see current wind gust speed)